Weather in Osinnik

Russia / Tyumen Oblast     59°16′14″N   68°50′10″E
temp.,
°C
wind,
m/s
gust,
m/s
humid.,
%
clouds,
%
prec.,
mm/h
press.,
hPa
HPBL,
m
14 april, wed
wed1423:00+5wsw41381100 0.0 1030314
02:00+6sw41680100 0.0 1026455
05:00+6wsw51479100 0.0 1025452
08:00+6w4138650 0.0 1024534
11:00+10wnw598191 0.0 1024775
14:00+9wnw3889100 0.0 1026559
17:00+11w2684100 0.0 1025735
20:00+8s2297100 0.0 102442
15 april, thu
thu1523:00+8ssw3895100 0.0 1023174
02:00+6wsw399588 0.0 1021175
05:00+5sw3109714 0.0 1021195
08:00+9sw412855 0.0 1019347
11:00+14wsw513635 0.0 1017741
14:00+17wsw612545 0.0 10151222
17:00+17w511515 0.0 10141375
20:00+12wsw3117411 0.0 1013220
16 april, fri
fri1623:00+7n5109098 0.1 1015541
02:00+5n4888100 0.7 1016716
05:00+4n4875100 1.3 1018763
08:00+3n5868100 0.0 10211041
11:00+3n684946 0.0 10251431
14:00+2nne67415 0.0 10271584
17:00+2nne45370 0.0 10281277
20:00−1ne235465 0.0 102850
17 april, sat
sat1723:00−2se246099 0.0 1027169
02:00−2s3959100 0.0 1024400
05:00−2ssw51261100 0.0 1021570
08:00+1sw51257100 0.0 1017923
11:00+4wnw6115292 0.7 10152022
14:00+4nw71138100 0.1 10162776
17:00+3n595137 0.3 10172044
20:00−1nne2263100 0.0 101816
18 april, sun
sun1823:00−3e3863100 0.0 1017322
02:00−3e4970100 0.1 1015383
05:00−6e61290100 1.9 1014555
08:00−7ene61382100 4.4 1016676
11:00−5ne6945100 5.3 10191002
14:00−3nne693650 0.0 10221579
17:00−3n6943100 0.0 10252114
20:00−7n5105552 0.0 1028880